Showing default

IRIDE-MS2-HEO-8, 64587

Orbit data source: Space-Track

IRIDE-MS2-HEO-8, 64587 is an Italian payload satellite in SSO that was launched on Mon, 23 Jun 2025 UTC via an FALCON 9 launch vehicle from the Air Force Western Test Range (AFWTR). Payload-class satellites include a variety of spacecraft equipped with specific instruments for various scientific and technological missions. These include communications satellites like Starlink; space stations such as the ISS; scientific satellites like the Hubble; Earth observation satellites from companies like Planet Labs, Umbra, and HawkEye 360; GPS; miniature CubeSats for education and research; and military/defense satellites.

Loading next visibility...
Identifier
64587, 2025-135BM
Orbit
SSO
Country
Flag of ITIT
Related business
Manufacturer
ArgoTec
Mission
Operational Civil Imaging
Bus & Motor
HAWK, Unknown motor
Mass
65 kg wet, 65 kg dry
Launch date (UTC)
2025-06-23 (7 months ago)
Launch vehicle
FALCON 9
Launch site
Air Force Western Test Range (AFWTR)
Object type
Payload
Rocket body
Debris
Shape & HBR
Box + 2 Pan, 3.0 m
Radar Cross Section
0.683 m², Medium (>0.1 m² and < 1m²)

Expand to show TLE details & history
Last TLE update: 15 hours ago

TLE from 15 hours ago
0 IRIDE-MS2-HEO-8
1 64587U 25135BM  26035.60810002  .00022468  00000-0  11861-2 0  9990
2 64587  97.2676 154.2015 0202873 192.2027 167.4245 14.99459477 34119
Epoch: 2026-02-04T14:35Z
TLE epoch observation values (Epoch: 2026-02-04T14:35:39.841Z)
Latitude
-0.00002°
Longitude
160.51326°
Altitude
709.343 km
Speed
7.426 km/s
True Right ascension
10h 16m 48s
True Declination
0° 00' 00"
Sunlit
Object was in full shadow at epoch
Visualization orbit readout
Latitude
Unknown
Longitude
Unknown
Altitude
Unknown
Speed
Unknown
Apparent Right ascension
Unknown
Apparent Declination
Unknown
Sunlit
N/A
Visualization observer readout
Local Sidereal Time
07:51:42
Azimuth
Unknown
Elevation
Unknown
Doppler factor
Unknown
Orbital elements
Apogee altitude
706.42 km
Perigee altitude
424.682 km
Semi-major axis
6,943.688 km
Eccentricity
0.02029
Inclination
97.2676°
RAAN
154.2015°
Arg. of periapsis
192.2027°
True anomaly
167.91842°
Mean anomaly
167.4245°
Eccentric anomaly
167.67266°
Mean motion
3.75109 °/min
Orbital period
95.97 mins
BSTAR
0.0011861
Loading maneuver chart data...
Computing Atmospheric mass density...
Loading historical data...
Loading historical data...
Loading historical data...
Loading historical data...
Loading historical data...
Loading historical data...
Loading historical data...

Documentation

Showing up to 5 results
|